Wind_Speed
21 20 19 20 22 22 22 24 24 23 23 24 24 24 24 24 24 24 24 24 24 25 25 25 25 24 24 24 25 24 24 24 24 24 23 23 24 23 24 24 25 25 25
21 21 21 21 21 22 23 24 24 24 25 24 25 25 25 25 25 25 24 23 23 23 23 24 24 24 25 25 25 25 24 24 24 24 23 23 24 24 24 24 25 26 26
22 21 20 21 22 23 23 23 24 25 25 25 25 25 25 25 25 24 23 23 23 23 23 24 25 25 25 24 24 24 23 23 23 23 23 23 23 24 25 25 25 25 26
22 21 21 20 21 21 22 22 24 24 25 25 26 25 25 25 24 24 23 23 23 24 25 24 25 25 25 24 24 25 24 24 23 23 23 23 24 24 24 25 25 25 25
23 22 21 20 21 21 22 23 24 24 24 25 25 25 25 24 23 24 24 23 23 24 24 25 26 26 26 25 25 25 25 24 24 24 24 24 24 25 25 25 25 25 25
22 22 22 22 22 23 24 24 24 24 25 25 25 25 25 25 24 24 24 23 23 24 24 25 26 26 26 26 25 25 25 24 24 24 24 24 24 25 25 26 26 25 25
21 22 22 22 23 24 24 24 25 26 26 25 25 26 26 25 25 25 25 24 23 24 23 24 24 24 25 26 26 26 25 25 26 26 25 25 25 25 26 26 26 26 25
21 22 23 22 22 24 25 26 27 28 28 28 27 26 26 26 26 26 26 25 24 24 23 23 23 24 25 25 26 26 26 26 26 26 26 26 26 26 26 27 27 27 26
23 23 23 23 23 24 25 26 27 28 28 27 26 26 27 27 26 26 26 25 25 25 24 24 23 24 24 25 26 26 26 26 27 27 27 27 27 27 27 27 27 27 27
23 23 24 25 25 25 25 26 27 27 27 27 27 27 27 27 27 27 26 26 25 24 25 25 25 25 26 27 27 27 28 28 28 28 28 28 28 28 27 27 26 26 26
24 24 25 25 25 25 26 26 27 27 27 27 27 27 27 27 27 26 25 25 25 25 25 25 25 26 26 27 28 28 29 29 29 29 28 28 28 27 27 27 26 25 25
24 25 25 25 25 26 27 27 27 27 27 27 27 27 27 27 27 26 26 26 26 25 25 25 25 26 26 26 26 27 28 28 28 28 28 28 27 27 27 26 25 25 24
25 25 25 25 26 27 27 28 28 28 28 28 27 27 27 27 26 26 26 26 25 26 26 26 26 25 26 26 26 26 26 26 26 26 26 26 26 25 25 25 24 24 23
25 26 26 26 27 27 28 28 28 28 28 28 28 27 27 26 27 27 26 25 25 25 25 25 25 25 25 25 25 25 24 24 24 24 23 24 24 24 24 23 23 23 22
25 26 25 26 26 27 28 28 28 28 28 28 27 27 26 26 26 26 25 25 24 24 24 24 23 23 23 23 23 23 22 22 22 22 22 22 22 22 22 22 21 21 21
23 24 25 25 25 26 27 27 27 28 27 27 27 26 25 25 25 25 24 24 23 23 24 22 22 21 21 21 20 20 20 20 21 21 22 21 20 20 19 19 19 19 19
24 23 24 24 25 27 26 26 27 27 27 27 26 26 25 25 25 25 24 24 23 23 22 21 21 20 20 19 19 19 18 18 19 19 18 18 17 17 16 16 16 16 16
23 24 24 24 25 25 25 25 25 25 25 24 25 25 25 24 24 23 23 23 22 21 20 19 19 19 19 19 18 17 16 15 16 15 14 15 14 14 14 14 14 14 13
22 22 23 23 24 24 24 24 24 23 22 22 21 22 22 22 21 21 20 19 19 19 18 17 17 17 17 17 16 15 14 13 12 11 11 11 11 11 12 12 11 10 11
21 20 21 21 22 22 23 22 21 20 20 20 20 19 18 18 18 17 16 16 16 16 16 15 15 14 14 13 13 12 12 11 9 9 9 9 9 9 9 9 9 8 8
19 19 19 19 20 21 21 21 20 19 19 18 18 17 16 16 15 14 14 13 13 14 13 13 13 12 11 10 9 9 8 8 8 8 7 7 7 7 7 7 7 6 6
17 18 17 18 18 18 18 17 17 17 16 15 15 14 14 13 12 12 11 11 11 11 10 10 10 9 8 7 6 6 6 6 7 7 6 5 6 6 6 6 6 5 5
16 16 16 16 16 16 15 14 14 14 14 14 13 12 11 10 10 9 9 9 8 8 7 7 7 7 6 6 5 5 5 4 5 6 6 6 6 6 6 6 7 6 6
14 14 14 15 14 13 12 12 12 12 11 11 11 10 9 8 8 8 8 7 6 5 4 4 4 4 4 4 4 4 5 5 5 5 5 6 6 6 6 6 7 7 6
11 11 11 12 11 11 10 10 10 10 10 9 9 8 7 6 5 5 4 4 4 3 2 2 2 4 4 5 5 5 5 6 6 6 7 7 7 7 7 7 7 7 7
9 9 9 9 9 8 8 8 8 8 7 7 6 5 4 3 2 2 2 1 0 0 1 2 2 4 5 5 6 7 6 6 7 7 8 8 8 8 8 8 8 8 8
Wind_Direction
264 263 263 270 275 278 279 280 283 285 286 286 287 288 287 286 286 285 278 273 269 266 266 266 267 266 266 265 266 266 269 271 270 271 271 272 273 273 273 275 274 274 274
264 264 266 273 278 279 281 282 283 285 286 287 288 290 287 287 289 287 282 276 272 270 270 270 269 268 268 267 267 267 270 271 273 273 272 274 274 275 275 275 275 274 272
269 271 272 275 279 278 279 282 284 285 286 287 287 289 287 287 286 284 282 280 276 271 271 272 270 270 270 269 269 268 270 271 272 273 275 276 276 276 275 275 273 271 272
272 272 272 275 278 280 281 282 284 286 286 287 288 287 286 286 285 284 282 277 277 274 270 272 273 273 272 270 270 271 272 271 272 275 277 276 275 276 275 275 275 274 274
271 272 273 275 277 280 284 284 285 286 286 287 288 287 285 286 286 284 281 279 279 278 277 274 272 273 273 273 272 271 273 273 274 276 277 276 277 277 277 277 278 277 275
272 273 274 275 277 280 283 284 285 284 286 286 285 286 287 288 286 283 283 281 281 281 278 276 274 273 273 272 272 271 273 273 274 276 277 278 278 279 278 278 278 278 275
271 275 275 275 278 281 283 285 285 285 285 284 284 285 287 287 287 287 287 286 284 281 280 278 277 277 274 271 271 270 271 272 274 275 276 277 277 278 280 281 282 281 277
276 277 276 276 280 282 284 286 286 284 283 284 284 285 287 287 286 287 287 287 285 283 281 279 278 277 275 274 273 273 273 273 274 274 276 277 278 279 281 282 282 281 278
276 276 277 279 282 284 285 285 286 283 282 282 283 286 288 287 287 286 285 284 283 282 283 283 281 279 277 276 276 275 275 275 274 275 275 275 277 278 281 281 282 281 281
277 278 278 279 282 284 286 286 287 287 287 286 286 287 287 287 287 286 285 284 283 283 283 282 282 280 279 278 278 277 276 275 275 275 275 275 275 276 278 279 280 279 280
282 281 280 281 281 284 286 288 289 290 289 287 286 286 286 285 286 285 285 285 285 285 284 281 281 280 280 280 279 278 276 275 274 274 274 274 274 274 275 276 277 277 277
282 281 281 281 282 284 286 287 288 288 288 287 285 284 284 284 284 285 285 285 285 285 285 283 282 281 280 280 279 279 277 275 274 274 274 273 273 273 273 272 272 273 274
282 281 281 282 284 285 286 287 287 287 287 286 285 284 282 282 283 283 283 284 285 285 284 283 282 282 281 280 281 280 279 277 275 274 274 272 271 271 271 269 268 270 271
282 281 280 283 285 286 287 287 287 286 286 285 284 283 282 282 283 282 283 284 286 286 284 283 283 282 282 281 281 281 280 278 276 274 272 271 271 270 268 267 267 268 268
282 282 284 284 285 287 288 288 287 287 286 285 284 283 282 283 283 283 283 284 285 286 284 283 281 281 282 282 281 280 279 278 276 273 272 270 270 268 266 265 265 266 266
286 287 286 288 289 290 290 289 288 287 286 285 284 283 282 283 284 284 283 284 285 284 283 282 280 280 282 283 283 280 279 276 276 273 271 270 267 264 264 263 262 263 263
288 289 289 290 291 291 290 290 289 287 285 283 283 283 282 282 283 283 282 283 283 283 281 280 281 281 280 281 283 280 278 277 276 274 268 263 262 261 259 260 259 259 260
288 288 290 292 293 294 293 292 292 290 288 286 285 283 281 282 284 283 281 280 280 281 279 278 277 279 278 278 281 279 276 276 276 272 266 261 261 255 254 259 260 257 257
287 288 291 292 293 294 295 295 292 290 289 289 288 287 285 284 284 283 281 279 278 277 276 277 277 278 276 274 276 275 273 273 272 268 266 264 260 254 256 256 255 254 253
290 290 292 293 294 295 295 295 293 291 291 292 290 290 289 288 286 284 281 280 279 279 275 273 275 275 275 273 274 272 268 266 264 258 260 260 255 250 247 246 243 245 242
293 295 295 296 297 297 296 295 294 292 293 294 291 290 291 290 287 284 283 282 281 278 273 269 269 269 270 271 270 264 260 254 251 250 252 251 244 238 240 233 225 225 224
294 295 296 297 299 299 298 298 297 295 295 296 294 293 293 292 289 283 281 281 277 274 271 270 269 266 263 259 260 255 246 241 233 230 235 229 217 217 216 206 197 195 196
297 297 298 300 300 300 302 302 301 299 298 300 298 295 293 286 285 285 283 283 280 275 273 271 269 257 252 251 245 237 224 220 214 210 208 204 197 196 194 187 181 178 176
303 302 301 303 303 305 304 303 303 305 306 306 303 298 292 288 283 284 284 286 282 278 273 267 255 243 236 229 211 198 194 190 191 194 190 184 177 173 171 172 172 171 170
313 308 307 309 311 311 307 307 308 310 311 311 310 303 294 295 294 296 293 290 289 286 271 239 225 219 210 195 186 185 188 190 185 177 167 162 162 161 160 160 162 160 154
327 324 321 322 323 321 320 322 320 321 319 318 316 312 306 302 295 297 307 316 340 93 209 183 162 168 176 174 170 168 168 165 162 159 160 160 158 154 152 151 147 143 139
Height
5852 5850 5850 5853 5853 5854 5854 5853 5853 5852 5851 5851 5850 5849 5848 5847 5846 5845 5844 5844 5844 5844 5844 5846 5846 5847 5848 5849 5850 5850 5850 5851 5851 5852 5853 5853 5853 5854 5854 5855 5855 5855 5855
5847 5848 5848 5848 5848 5849 5849 5849 5848 5847 5846 5846 5845 5844 5843 5842 5841 5840 5839 5839 5839 5839 5840 5841 5841 5842 5843 5843 5844 5845 5845 5845 5846 5846 5847 5847 5848 5848 5848 5849 5849 5849 5849
5843 5843 5843 5843 5844 5844 5844 5844 5843 5842 5841 5841 5840 5839 5838 5837 5837 5836 5835 5835 5834 5834 5835 5835 5836 5836 5837 5838 5838 5839 5839 5840 5840 5840 5841 5842 5842 5842 5843 5842 5842 5842 5843
5839 5839 5839 5839 5839 5839 5839 5839 5838 5837 5836 5835 5835 5834 5833 5833 5832 5831 5830 5830 5830 5829 5829 5830 5830 5831 5831 5832 5832 5833 5833 5834 5834 5835 5835 5835 5836 5836 5837 5836 5836 5836 5837
5835 5835 5835 5835 5835 5835 5835 5834 5833 5832 5831 5830 5829 5828 5828 5827 5826 5825 5824 5824 5824 5824 5824 5824 5824 5825 5825 5825 5826 5827 5827 5828 5828 5829 5829 5829 5829 5830 5830 5830 5830 5830 5831
5831 5831 5831 5831 5831 5831 5830 5829 5828 5827 5827 5825 5824 5823 5822 5822 5821 5820 5819 5818 5819 5819 5819 5818 5818 5819 5819 5819 5820 5821 5821 5821 5822 5822 5823 5823 5823 5823 5823 5824 5824 5824 5824
5826 5826 5826 5826 5826 5825 5825 5824 5823 5822 5821 5820 5819 5818 5817 5816 5815 5814 5813 5813 5813 5813 5812 5812 5812 5812 5812 5813 5813 5814 5815 5815 5815 5816 5816 5816 5817 5817 5817 5817 5817 5817 5818
5822 5822 5821 5821 5821 5820 5819 5818 5817 5816 5815 5814 5813 5812 5811 5810 5809 5808 5807 5807 5807 5806 5806 5806 5806 5806 5806 5806 5806 5807 5807 5808 5809 5809 5809 5810 5810 5810 5810 5810 5810 5810 5811
5817 5817 5817 5817 5816 5815 5814 5813 5811 5810 5809 5808 5807 5806 5805 5804 5803 5802 5801 5801 5800 5800 5800 5799 5799 5799 5799 5799 5799 5799 5800 5801 5801 5802 5802 5803 5803 5803 5803 5803 5804 5804 5804
5813 5812 5812 5811 5811 5810 5808 5807 5805 5804 5803 5802 5801 5800 5799 5797 5796 5796 5795 5794 5794 5793 5793 5792 5792 5792 5792 5792 5792 5792 5792 5793 5793 5794 5795 5795 5796 5796 5796 5797 5797 5797 5797
5808 5807 5806 5805 5805 5804 5803 5801 5799 5798 5796 5795 5794 5793 5792 5791 5790 5789 5788 5788 5787 5786 5786 5785 5785 5784 5784 5784 5784 5784 5784 5785 5785 5786 5786 5787 5788 5788 5789 5789 5790 5790 5791
5803 5802 5800 5799 5798 5797 5796 5794 5793 5791 5790 5789 5788 5787 5785 5784 5783 5782 5781 5781 5780 5779 5778 5778 5777 5777 5776 5776 5776 5776 5776 5776 5777 5777 5778 5778 5779 5780 5781 5782 5782 5783 5784
5797 5796 5794 5794 5792 5791 5789 5788 5786 5784 5783 5782 5781 5780 5778 5777 5776 5775 5775 5774 5773 5772 5771 5770 5770 5769 5769 5769 5768 5768 5768 5768 5768 5769 5769 5770 5771 5772 5773 5774 5775 5776 5777
5792 5790 5788 5787 5786 5784 5782 5780 5779 5777 5776 5775 5773 5772 5771 5770 5769 5768 5767 5766 5766 5765 5764 5763 5763 5762 5762 5761 5761 5761 5760 5760 5760 5761 5762 5763 5764 5765 5766 5767 5769 5770 5771
5786 5785 5782 5781 5779 5778 5776 5773 5771 5770 5768 5767 5766 5765 5764 5763 5762 5761 5760 5759 5759 5758 5757 5757 5756 5756 5755 5755 5754 5754 5754 5754 5754 5754 5755 5755 5757 5758 5759 5761 5762 5763 5765
5780 5778 5777 5775 5773 5771 5769 5766 5765 5763 5761 5760 5759 5758 5757 5756 5755 5754 5753 5752 5752 5751 5751 5750 5750 5750 5749 5748 5748 5747 5747 5747 5747 5748 5748 5749 5750 5752 5753 5755 5756 5758 5759
5774 5772 5771 5769 5767 5765 5762 5760 5758 5756 5754 5753 5751 5750 5749 5749 5748 5747 5746 5746 5745 5745 5744 5744 5744 5744 5744 5743 5742 5742 5741 5741 5741 5741 5742 5743 5745 5746 5748 5750 5751 5753 5754
5768 5767 5765 5763 5761 5758 5755 5753 5751 5749 5747 5745 5744 5743 5742 5741 5741 5740 5739 5739 5739 5738 5738 5738 5738 5738 5738 5738 5737 5737 5737 5737 5737 5737 5738 5739 5741 5743 5744 5746 5748 5749 5751
5763 5761 5759 5757 5755 5752 5749 5747 5744 5743 5741 5739 5738 5737 5736 5735 5734 5733 5733 5733 5733 5733 5733 5733 5733 5733 5733 5733 5733 5733 5733 5733 5734 5735 5736 5737 5738 5740 5741 5743 5745 5746 5748
5757 5756 5754 5751 5749 5746 5744 5741 5739 5737 5736 5734 5733 5731 5730 5729 5728 5728 5728 5728 5728 5728 5728 5729 5729 5729 5729 5729 5729 5730 5730 5731 5732 5733 5734 5735 5736 5738 5739 5741 5742 5744 5746
5752 5751 5749 5746 5744 5741 5738 5736 5734 5732 5731 5729 5728 5726 5725 5725 5724 5724 5724 5724 5724 5724 5724 5725 5725 5725 5726 5726 5727 5727 5728 5729 5730 5732 5733 5734 5735 5736 5738 5740 5741 5743 5745
5748 5746 5744 5741 5739 5736 5734 5731 5729 5728 5726 5725 5724 5722 5722 5721 5720 5720 5720 5720 5721 5721 5721 5722 5722 5722 5723 5724 5725 5726 5727 5728 5729 5731 5732 5733 5734 5736 5738 5739 5741 5742 5744
5743 5741 5739 5737 5735 5732 5730 5728 5726 5724 5723 5722 5720 5719 5719 5718 5718 5718 5718 5718 5718 5718 5719 5719 5720 5720 5721 5723 5724 5725 5726 5727 5729 5730 5732 5733 5734 5736 5738 5739 5741 5743 5744
5740 5737 5735 5733 5731 5729 5727 5725 5724 5722 5720 5719 5718 5717 5716 5716 5716 5716 5716 5716 5717 5717 5717 5718 5719 5720 5721 5722 5723 5724 5726 5727 5729 5730 5732 5733 5735 5736 5738 5740 5741 5743 5744
5737 5734 5732 5731 5729 5727 5725 5723 5722 5720 5719 5718 5716 5716 5715 5715 5715 5715 5715 5715 5716 5716 5717 5717 5718 5720 5721 5722 5723 5725 5726 5728 5729 5731 5733 5734 5736 5738 5739 5741 5742 5744 5745
5735 5732 5730 5729 5727 5725 5724 5722 5720 5719 5718 5717 5716 5715 5715 5714 5714 5715 5715 5715 5716 5716 5717 5718 5718 5719 5721 5722 5723 5725 5727 5729 5730 5732 5734 5736 5737 5739 5740 5742 5744 5745 5746